Wheeling, WV

11:10 AM EST on December 10, 2019 (GMT -0500)
Wheeling-Ohio County

Weather History for KHLG - October, 2019

Change the Weather History Date:

Tuesday, October 8, 2019

  Actual Average Record
Temperature  
Mean Temperature 58 °F 56 °F  
Max Temperature 67 °F 66 °F 89 °F (1939)
Min Temperature 49 °F 46 °F 24 °F (1909)
Degree Days  
Heating Degree Days 7 10  
Month to date heating degree days 35 68  
Since 1 July heating degree days 36 169  
Cooling Degree Days 0 1  
Month to date cooling degree days 40 8  
Year to date cooling degree days 986 686  
Growing Degree Days 7 (Base 50)    
Moisture  
Dew Point 47 °F    
Average Humidity 69    
Maximum Humidity 100    
Minimum Humidity 38    
Precipitation  
Precipitation 0.00 in 0.08 in 1.29 in (1903)
Month to date precipitation 1.60 0.67  
Year to date precipitation 29.58 30.44  
Sea Level Pressure  
Sea Level Pressure 30.26 in    
Wind  
Wind Speed 8 mph (ENE)    
Max Wind Speed 18 mph    
Max Gust Speed 25 mph    
Visibility 6 miles    
Events Fog    
T = Trace of Precipitation, MM = Missing Value Source: NWS Daily Summary

Daily Weather History Graph

Daily Weather History Graph

Search for Another Location

Airport or City:

Astronomy

Oct. 08, 2019 Rise Set
Actual Time 7:25 AM EDT 6:53 PM EDT
Civil Twilight 6:58 AM EDT 7:21 PM EDT
Nautical Twilight 6:27 AM EDT 7:52 PM EDT
Astronomical Twilight 5:55 AM EDT 8:23 PM EDT
Moon 4:52 PM EDT (10/8) 2:13 AM EDT (10/8)
Length of Visible Light 12h 22m
Length of Day
11h 28m
Waxing Gibbous, 77% of the Moon is Illuminated
Oct 8
Waxing Gibbous
Oct 13
Full
Oct 21
Last Quarter
Oct 27
New
Nov 4
First Quarter

Hourly Weather History & Observations

Time (EDT) Temp. Dew Point Humidity Pressure Visibility Wind Dir Wind Speed Gust Speed Precip Events Conditions
12:07 AM 50.0 °F 48.9 °F 96% 30.25 in 0.5 mi Calm Calm - N/A Fog Fog
12:22 AM 50.0 °F 48.0 °F 93% 30.25 in 0.2 mi Calm Calm - N/A Fog Fog
12:53 AM 51.1 °F 48.9 °F 92% 30.25 in 0.2 mi Calm Calm - N/A Fog Fog
1:53 AM 50.0 °F 50.0 °F 100% 30.26 in 0.2 mi Calm Calm - N/A Fog Fog
2:53 AM 48.9 °F 48.0 °F 97% 30.25 in 0.2 mi ENE 3.5 mph - N/A Fog Fog
4:53 AM 48.9 °F 48.0 °F 97% 30.26 in 0.2 mi Calm Calm - N/A Fog Fog
5:53 AM 50.0 °F 48.9 °F 96% 30.27 in 0.2 mi ENE 8.1 mph - N/A Fog Fog
6:50 AM 48.2 °F 48.2 °F 100% 30.26 in 0.2 mi East 9.2 mph - N/A Fog Fog
6:53 AM 48.9 °F 48.0 °F 97% 30.28 in 0.2 mi ENE 9.2 mph - N/A Fog Fog
7:18 AM 48.9 °F 48.0 °F 97% 30.27 in 0.2 mi ENE 8.1 mph - N/A Fog Fog
7:32 AM 48.9 °F 48.0 °F 97% 30.26 in 0.5 mi NE 8.1 mph - N/A Fog Fog
7:53 AM 50.0 °F 48.9 °F 96% 30.29 in 0.2 mi NE 9.2 mph - N/A Fog Fog
8:02 AM 50.0 °F 48.9 °F 96% 30.27 in 1.0 mi ENE 8.1 mph - N/A   Overcast
8:08 AM 50.0 °F 48.9 °F 96% 30.27 in 3.0 mi ENE 8.1 mph - N/A   Overcast
8:23 AM 50.0 °F 48.9 °F 96% 30.28 in 5.0 mi NE 6.9 mph - N/A   Overcast
8:53 AM 50.0 °F 48.9 °F 96% 30.30 in 8.0 mi ENE 9.2 mph - N/A   Overcast
9:08 AM 51.1 °F 48.9 °F 92% 30.28 in 8.0 mi ENE 9.2 mph - N/A   Mostly Cloudy
9:21 AM 52.0 °F 48.9 °F 89% 30.28 in 9.0 mi ENE 9.2 mph - N/A   Scattered Clouds
9:31 AM 53.1 °F 50.0 °F 89% 30.28 in 9.0 mi NE 10.4 mph - N/A   Mostly Cloudy
9:40 AM 53.1 °F 50.0 °F 89% 30.28 in 9.0 mi ENE 8.1 mph - N/A   Scattered Clouds
9:53 AM 54.0 °F 50.0 °F 86% 30.29 in 10.0 mi East 8.1 mph - N/A   Partly Cloudy
10:53 AM 57.0 °F 50.0 °F 77% 30.30 in 10.0 mi ENE 9.2 mph - N/A   Clear
11:53 AM 61.0 °F 46.9 °F 60% 30.28 in 10.0 mi East 13.8 mph 20.7 mph N/A   Clear
12:53 PM 63.0 °F 45.0 °F 52% 30.26 in 10.0 mi ENE 15.0 mph - N/A   Clear
1:53 PM 64.9 °F 44.1 °F 47% 30.24 in 10.0 mi ENE 9.2 mph - N/A   Clear
2:53 PM 66.0 °F 43.0 °F 43% 30.22 in 10.0 mi East 9.2 mph - N/A   Clear
3:53 PM 66.0 °F 39.9 °F 38% 30.21 in 10.0 mi ENE 13.8 mph 17.3 mph N/A   Clear
4:53 PM 66.0 °F 42.1 °F 42% 30.21 in 10.0 mi NE 11.5 mph - N/A   Clear
5:53 PM 64.9 °F 42.1 °F 43% 30.21 in 10.0 mi ENE 10.4 mph - N/A   Clear
6:53 PM 61.0 °F 42.1 °F 50% 30.22 in 10.0 mi NE 4.6 mph - N/A   Clear
7:53 PM 60.1 °F 42.1 °F 51% 30.22 in 10.0 mi ENE 5.8 mph - N/A   Clear
8:53 PM 57.9 °F 42.1 °F 56% 30.24 in 10.0 mi ENE 5.8 mph - N/A   Clear
9:53 PM 55.9 °F 42.1 °F 60% 30.23 in 10.0 mi East 8.1 mph - N/A   Clear
10:53 PM 55.9 °F 41.0 °F 57% 30.22 in 10.0 mi East 8.1 mph - N/A   Clear
11:53 PM 54.0 °F 42.1 °F 64% 30.23 in 10.0 mi East 6.9 mph - N/A   Clear